Time,TemperatureF,DewpointF,PressureIn,WindDirection,WindDirectionDegrees,WindSpeedMPH,WindSpeedGustMPH,Humidity,HourlyPrecipIn,Conditions,Clouds,dailyrainin,SoftwareType,DateUTC
2013-03-06 00:13:00,59.9,59.0,30.07,South,172,5.0,6.0,97,0.00,,,0.00,weatherlink.com 1.10,2013-03-06 05:13:00,
2013-03-06 00:28:00,60.5,59.0,30.07,SW,219,2.0,6.0,96,0.00,,,0.00,weatherlink.com 1.10,2013-03-06 05:28:00,
2013-03-06 00:43:00,60.4,59.0,30.07,South,188,3.0,5.0,95,0.00,,,0.00,weatherlink.com 1.10,2013-03-06 05:43:00,
2013-03-06 00:58:00,59.9,59.0,30.06,South,187,2.0,4.0,95,0.00,,,0.00,weatherlink.com 1.10,2013-03-06 05:58:00,
2013-03-06 01:13:00,60.1,59.0,30.06,SSW,194,2.0,4.0,96,0.00,,,0.00,weatherlink.com 1.10,2013-03-06 06:13:00,
2013-03-06 01:43:00,61.4,60.0,30.05,SSW,200,5.0,7.0,95,0.00,,,0.00,weatherlink.com 1.10,2013-03-06 06:43:00,
2013-03-06 01:58:00,61.4,60.0,30.05,SSW,195,3.0,6.0,94,0.00,,,0.00,weatherlink.com 1.10,2013-03-06 06:58:00,
2013-03-06 02:13:00,61.6,60.0,30.04,South,188,2.0,6.0,93,0.00,,,0.00,weatherlink.com 1.10,2013-03-06 07:13:00,
2013-03-06 02:29:00,61.1,59.0,30.04,West,278,0.0,2.0,93,0.00,,,0.00,weatherlink.com 1.10,2013-03-06 07:29:00,
2013-03-06 02:44:00,61.4,60.0,30.03,SSW,197,5.0,5.0,94,0.00,,,0.00,weatherlink.com 1.10,2013-03-06 07:44:00,
2013-03-06 02:59:00,62.0,60.0,30.02,SSE,166,4.0,7.0,94,0.00,,,0.00,weatherlink.com 1.10,2013-03-06 07:59:00,
2013-03-06 03:14:00,62.9,61.0,30.02,SSW,201,5.0,11.0,93,0.00,,,0.00,weatherlink.com 1.10,2013-03-06 08:14:00,
2013-03-06 03:29:00,63.7,61.0,30.01,SSW,195,3.0,10.0,91,0.00,,,0.00,weatherlink.com 1.10,2013-03-06 08:29:00,
2013-03-06 03:44:00,63.9,61.0,30.01,South,188,5.0,9.0,90,0.00,,,0.00,weatherlink.com 1.10,2013-03-06 08:44:00,
2013-03-06 03:59:00,64.1,61.0,30.01,SSW,207,3.0,9.0,90,0.00,,,0.00,weatherlink.com 1.10,2013-03-06 08:59:00,
2013-03-06 04:14:00,64.1,61.0,30.01,SSW,205,5.0,8.0,89,0.00,,,0.00,weatherlink.com 1.10,2013-03-06 09:14:00,
2013-03-06 04:29:00,63.9,61.0,30.01,SSE,168,4.0,8.0,89,0.00,,,0.00,weatherlink.com 1.10,2013-03-06 09:29:00,
2013-03-06 04:44:00,63.6,60.0,30.01,SSW,210,4.0,7.0,89,0.00,,,0.00,weatherlink.com 1.10,2013-03-06 09:44:00,
2013-03-06 04:59:00,63.7,61.0,30.01,SSW,212,5.0,7.0,89,0.00,,,0.00,weatherlink.com 1.10,2013-03-06 09:59:00,
2013-03-06 05:14:00,63.7,61.0,30.01,SW,222,8.0,8.0,89,0.00,,,0.00,weatherlink.com 1.10,2013-03-06 10:14:00,
2013-03-06 05:29:00,63.7,61.0,30.01,SSW,207,6.0,8.0,90,0.00,,,0.00,weatherlink.com 1.10,2013-03-06 10:29:00,
2013-03-06 05:44:00,63.9,61.0,30.02,SSW,206,4.0,10.0,89,0.00,,,0.00,weatherlink.com 1.10,2013-03-06 10:44:00,
2013-03-06 05:59:00,64.1,61.0,30.02,SSW,201,4.0,11.0,90,0.00,,,0.00,weatherlink.com 1.10,2013-03-06 10:59:00,
2013-03-06 06:14:00,64.3,61.0,30.02,SSW,203,6.0,10.0,89,0.00,,,0.00,weatherlink.com 1.10,2013-03-06 11:14:00,
2013-03-06 06:29:00,64.4,61.0,30.02,South,169,6.0,11.0,89,0.00,,,0.00,weatherlink.com 1.10,2013-03-06 11:29:00,
2013-03-06 06:44:00,64.5,61.0,30.02,SSW,207,7.0,11.0,89,0.00,,,0.00,weatherlink.com 1.10,2013-03-06 11:44:00,
2013-03-06 06:59:00,64.8,62.0,30.02,SSW,201,5.0,12.0,89,0.00,,,0.00,weatherlink.com 1.10,2013-03-06 11:59:00,
2013-03-06 07:14:00,65.2,62.0,30.03,South,181,5.0,12.0,89,0.00,,,0.00,weatherlink.com 1.10,2013-03-06 12:14:00,
2013-03-06 07:29:00,66.0,62.0,30.03,SW,219,6.0,13.0,88,0.00,,,0.00,weatherlink.com 1.10,2013-03-06 12:29:00,
2013-03-06 07:44:00,66.5,63.0,30.04,SW,222,9.0,14.0,87,0.00,,,0.00,weatherlink.com 1.10,2013-03-06 12:44:00,
2013-03-06 07:59:00,66.5,63.0,30.05,SW,217,3.0,13.0,88,0.00,,,0.00,weatherlink.com 1.10,2013-03-06 12:59:00,
2013-03-06 08:14:00,66.0,62.0,30.07,WNW,291,11.0,19.0,88,0.00,,,0.00,weatherlink.com 1.10,2013-03-06 13:14:00,
2013-03-06 08:29:00,63.0,61.0,30.07,NW,311,7.0,15.0,93,0.01,,,0.01,weatherlink.com 1.10,2013-03-06 13:29:00,
2013-03-06 08:44:00,62.4,61.0,30.08,NW,311,9.0,13.0,95,0.01,,,0.01,weatherlink.com 1.10,2013-03-06 13:44:00,
2013-03-06 08:59:00,61.9,60.0,30.09,NW,304,11.0,15.0,94,0.01,,,0.01,weatherlink.com 1.10,2013-03-06 13:59:00,
2013-03-06 09:14:00,60.7,58.0,30.09,NW,324,6.0,13.0,92,0.01,,,0.01,weatherlink.com 1.10,2013-03-06 14:14:00,
2013-03-06 09:29:00,60.3,57.0,30.09,NNW,336,8.0,12.0,90,0.00,,,0.01,weatherlink.com 1.10,2013-03-06 14:29:00,
2013-03-06 09:44:00,59.7,55.0,30.11,NNW,331,9.0,11.0,85,0.00,,,0.01,weatherlink.com 1.10,2013-03-06 14:44:00,
2013-03-06 09:59:00,60.0,55.0,30.11,NNW,340,7.0,12.0,84,0.00,,,0.01,weatherlink.com 1.10,2013-03-06 14:59:00,
2013-03-06 10:14:00,60.6,54.0,30.11,NW,318,9.0,13.0,78,0.00,,,0.01,weatherlink.com 1.10,2013-03-06 15:14:00,
2013-03-06 10:29:00,60.9,49.0,30.11,NW,309,9.0,14.0,66,0.00,,,0.01,weatherlink.com 1.10,2013-03-06 15:29:00,
2013-03-06 10:44:00,62.5,47.0,30.12,NNW,340,10.0,15.0,58,0.00,,,0.01,weatherlink.com 1.10,2013-03-06 15:44:00,
2013-03-06 11:00:00,61.6,45.0,30.12,NNW,345,12.0,16.0,54,0.00,,,0.01,weatherlink.com 1.10,2013-03-06 16:00:00,
2013-03-06 11:15:00,62.7,46.0,30.12,NNW,328,7.0,16.0,54,0.00,,,0.01,weatherlink.com 1.10,2013-03-06 16:15:00,
2013-03-06 11:30:00,63.3,44.0,30.12,NNW,336,7.0,14.0,50,0.00,,,0.01,weatherlink.com 1.10,2013-03-06 16:30:00,
2013-03-06 11:45:00,63.0,43.0,30.12,NW,320,9.0,14.0,49,0.00,,,0.01,weatherlink.com 1.10,2013-03-06 16:45:00,
2013-03-06 12:00:00,64.3,44.0,30.11,NW,321,9.0,14.0,48,0.00,,,0.01,weatherlink.com 1.10,2013-03-06 17:00:00,
2013-03-06 12:15:00,64.9,45.0,30.11,NNW,330,5.0,15.0,48,0.00,,,0.01,weatherlink.com 1.10,2013-03-06 17:15:00,
2013-03-06 12:30:00,65.3,45.0,30.09,NNW,333,11.0,13.0,49,0.00,,,0.01,weatherlink.com 1.10,2013-03-06 17:30:00,
2013-03-06 12:45:00,65.2,45.0,30.09,WNW,291,4.0,14.0,48,0.00,,,0.01,weatherlink.com 1.10,2013-03-06 17:45:00,
2013-03-06 13:00:00,65.7,49.0,30.08,WSW,257,8.0,12.0,55,0.00,,,0.01,weatherlink.com 1.10,2013-03-06 18:00:00,
2013-03-06 13:15:00,65.1,49.0,30.08,WNW,287,7.0,14.0,56,0.00,,,0.01,weatherlink.com 1.10,2013-03-06 18:15:00,
2013-03-06 13:30:00,64.8,49.0,30.07,West,274,8.0,18.0,57,0.00,,,0.01,weatherlink.com 1.10,2013-03-06 18:30:00,
2013-03-06 13:45:00,64.7,51.0,30.06,West,278,11.0,17.0,61,0.00,,,0.01,weatherlink.com 1.10,2013-03-06 18:45:00,
2013-03-06 14:00:00,64.2,50.0,30.06,WSW,248,17.0,18.0,60,0.00,,,0.01,weatherlink.com 1.10,2013-03-06 19:00:00,
2013-03-06 14:15:00,64.4,49.0,30.05,WNW,293,15.0,19.0,58,0.00,,,0.01,weatherlink.com 1.10,2013-03-06 19:15:00,
2013-03-06 14:30:00,64.2,48.0,30.05,West,281,13.0,20.0,57,0.00,,,0.01,weatherlink.com 1.10,2013-03-06 19:30:00,
2013-03-06 14:45:00,64.2,43.0,30.05,West,273,12.0,23.0,47,0.00,,,0.01,weatherlink.com 1.10,2013-03-06 19:45:00,
2013-03-06 15:00:00,63.4,44.0,30.05,WSW,255,13.0,23.0,50,0.00,,,0.01,weatherlink.com 1.10,2013-03-06 20:00:00,
2013-03-06 15:15:00,62.8,45.0,30.05,West,266,12.0,22.0,53,0.00,,,0.01,weatherlink.com 1.10,2013-03-06 20:15:00,
2013-03-06 15:30:00,62.7,46.0,30.05,West,274,13.0,22.0,54,0.00,,,0.01,weatherlink.com 1.10,2013-03-06 20:30:00,
2013-03-06 15:45:00,62.7,45.0,30.05,West,281,13.0,22.0,52,0.00,,,0.01,weatherlink.com 1.10,2013-03-06 20:45:00,
2013-03-06 16:00:00,63.0,44.0,30.05,WNW,287,13.0,23.0,50,0.00,,,0.01,weatherlink.com 1.10,2013-03-06 21:00:00,
2013-03-06 16:15:00,62.9,44.0,30.05,WNW,301,12.0,22.0,50,0.00,,,0.01,weatherlink.com 1.10,2013-03-06 21:15:00,
2013-03-06 16:30:00,62.2,44.0,30.05,West,278,10.0,22.0,52,0.00,,,0.01,weatherlink.com 1.10,2013-03-06 21:30:00,
2013-03-06 16:45:00,61.9,44.0,30.05,WNW,291,10.0,20.0,52,0.00,,,0.01,weatherlink.com 1.10,2013-03-06 21:45:00,
2013-03-06 17:00:00,61.8,45.0,30.05,WNW,295,13.0,19.0,54,0.00,,,0.01,weatherlink.com 1.10,2013-03-06 22:00:00,
2013-03-06 17:15:00,61.3,43.0,30.06,WNW,300,11.0,19.0,52,0.00,,,0.01,weatherlink.com 1.10,2013-03-06 22:15:00,
2013-03-06 17:30:00,60.6,46.0,30.06,West,280,10.0,17.0,58,0.00,,,0.01,weatherlink.com 1.10,2013-03-06 22:30:00,
2013-03-06 17:45:00,59.8,44.0,30.07,WSW,257,10.0,19.0,56,0.00,,,0.01,weatherlink.com 1.10,2013-03-06 22:45:00,
2013-03-06 18:00:00,59.1,44.0,30.07,WNW,293,9.0,15.0,57,0.00,,,0.01,weatherlink.com 1.10,2013-03-06 23:00:00,
2013-03-06 18:15:00,58.1,45.0,30.08,West,278,8.0,11.0,62,0.00,,,0.01,weatherlink.com 1.10,2013-03-06 23:15:00,
2013-03-06 18:30:00,57.2,45.0,30.09,West,280,12.0,15.0,63,0.00,,,0.01,weatherlink.com 1.10,2013-03-06 23:30:00,
2013-03-06 18:45:00,56.7,44.0,30.09,WNW,300,11.0,15.0,63,0.00,,,0.01,weatherlink.com 1.10,2013-03-06 23:45:00,
2013-03-06 19:00:00,56.1,45.0,30.10,NW,318,12.0,13.0,66,0.00,,,0.01,weatherlink.com 1.10,2013-03-07 00:00:00,
2013-03-06 19:15:00,55.9,45.0,30.10,WNW,298,9.0,15.0,67,0.00,,,0.01,weatherlink.com 1.10,2013-03-07 00:15:00,
2013-03-06 19:30:00,55.6,45.0,30.10,WNW,302,9.0,14.0,67,0.00,,,0.01,weatherlink.com 1.10,2013-03-07 00:30:00,
2013-03-06 19:45:00,55.4,45.0,30.10,WNW,299,7.0,15.0,68,0.00,,,0.01,weatherlink.com 1.10,2013-03-07 00:45:00,
2013-03-06 20:00:00,55.2,46.0,30.10,NW,309,7.0,11.0,70,0.00,,,0.01,weatherlink.com 1.10,2013-03-07 01:00:00,
2013-03-06 20:15:00,55.1,45.0,30.10,NW,318,3.0,9.0,70,0.00,,,0.01,weatherlink.com 1.10,2013-03-07 01:15:00,
2013-03-06 20:30:00,54.8,46.0,30.10,WNW,287,6.0,8.0,71,0.00,,,0.01,weatherlink.com 1.10,2013-03-07 01:30:00,
2013-03-06 20:45:00,54.7,45.0,30.11,West,277,3.0,10.0,70,0.00,,,0.01,weatherlink.com 1.10,2013-03-07 01:45:00,
2013-03-06 21:00:00,55.2,45.0,30.11,NW,321,5.0,9.0,69,0.00,,,0.01,weatherlink.com 1.10,2013-03-07 02:00:00,
2013-03-06 21:15:00,55.3,45.0,30.11,WNW,283,6.0,8.0,68,0.00,,,0.01,weatherlink.com 1.10,2013-03-07 02:15:00,
2013-03-06 21:30:00,55.4,45.0,30.12,NW,306,3.0,8.0,68,0.00,,,0.01,weatherlink.com 1.10,2013-03-07 02:30:00,
2013-03-06 21:45:00,55.5,45.0,30.12,NW,315,4.0,9.0,68,0.00,,,0.01,weatherlink.com 1.10,2013-03-07 02:45:00,
2013-03-06 22:00:00,55.3,45.0,30.13,NW,313,5.0,8.0,68,0.00,,,0.01,weatherlink.com 1.10,2013-03-07 03:00:00,
2013-03-06 22:15:00,55.7,46.0,30.13,NNW,327,4.0,13.0,70,0.00,,,0.01,weatherlink.com 1.10,2013-03-07 03:15:00,
2013-03-06 22:30:00,55.5,46.0,30.13,NNW,334,4.0,10.0,71,0.00,,,0.01,weatherlink.com 1.10,2013-03-07 03:30:00,
2013-03-06 22:45:00,54.8,46.0,30.13,WNW,302,7.0,12.0,73,0.00,,,0.01,weatherlink.com 1.10,2013-03-07 03:45:00,
2013-03-06 23:00:00,54.4,46.0,30.14,NW,316,8.0,11.0,74,0.00,,,0.01,weatherlink.com 1.10,2013-03-07 04:00:00,
2013-03-06 23:15:00,54.2,46.0,30.14,NNW,342,7.0,12.0,74,0.00,,,0.01,weatherlink.com 1.10,2013-03-07 04:15:00,
2013-03-06 23:31:00,53.1,45.0,30.14,North,11,4.0,9.0,75,0.00,,,0.01,weatherlink.com 1.10,2013-03-07 04:31:00,
2013-03-06 23:46:00,51.7,44.0,30.14,NNW,344,3.0,7.0,76,0.00,,,0.01,weatherlink.com 1.10,2013-03-07 04:46:00,